Time,TemperatureF,DewpointF,PressureIn,WindDirection,WindDirectionDegrees,WindSpeedMPH,WindSpeedGustMPH,Humidity,HourlyPrecipIn,Conditions,Clouds,dailyrainin,SoftwareType,DateUTC
2013-02-11 00:00:00,62.6,60.2,29.97,SSW,202,0.0,0.0,92,0.04,RA,,0.00,WeatherDisplay:10.37,2013-02-11 06:00:00,
2013-02-11 00:05:00,62.6,60.2,29.97,North,0,4.0,4.0,92,0.04,RA,,0.00,WeatherDisplay:10.37,2013-02-11 06:05:00,
2013-02-11 00:10:00,62.6,60.2,29.97,North,0,0.0,0.0,92,0.04,CLR,,0.00,WeatherDisplay:10.37,2013-02-11 06:10:00,
2013-02-11 00:15:00,62.6,60.2,29.94,North,0,0.0,0.0,92,0.04,CLR,,0.00,WeatherDisplay:10.37,2013-02-11 06:15:00,
2013-02-11 00:20:00,62.6,60.5,29.94,NNE,22,0.0,0.0,93,0.04,CLR,,0.00,WeatherDisplay:10.37,2013-02-11 06:20:00,
2013-02-11 00:25:00,62.6,60.5,29.94,North,0,5.9,5.9,93,0.04,CLR,,0.00,WeatherDisplay:10.37,2013-02-11 06:25:00,
2013-02-11 00:30:00,62.6,60.5,29.97,NNW,338,0.0,0.0,93,0.04,CLR,,0.00,WeatherDisplay:10.37,2013-02-11 06:30:00,
2013-02-11 00:35:00,62.6,60.5,29.97,NNW,338,2.3,2.3,93,0.04,CLR,,0.00,WeatherDisplay:10.37,2013-02-11 06:35:00,
2013-02-11 00:40:00,62.6,60.5,29.97,North,0,0.0,0.0,93,0.04,CLR,,0.00,WeatherDisplay:10.37,2013-02-11 06:40:00,
2013-02-11 00:45:00,62.6,60.5,29.97,North,0,0.0,0.0,93,0.04,CLR,,0.00,WeatherDisplay:10.37,2013-02-11 06:45:00,
2013-02-11 00:50:00,62.6,60.5,29.97,NNE,22,0.0,0.0,93,0.04,CLR,,0.00,WeatherDisplay:10.37,2013-02-11 06:50:00,
2013-02-11 00:55:00,62.6,60.5,29.97,North,0,0.0,0.0,93,0.00,CLR,,0.00,WeatherDisplay:10.37,2013-02-11 06:55:00,
2013-02-11 01:00:00,62.6,60.5,29.94,North,0,0.0,0.0,93,0.00,CLR,,0.00,WeatherDisplay:10.37,2013-02-11 07:00:00,
2013-02-11 01:05:00,62.8,60.7,29.94,North,0,0.0,0.0,93,0.00,CLR,,0.00,WeatherDisplay:10.37,2013-02-11 07:05:00,
2013-02-11 01:10:00,62.8,60.7,29.94,NNE,22,0.0,0.0,93,0.00,CLR,,0.00,WeatherDisplay:10.37,2013-02-11 07:10:00,
2013-02-11 01:15:00,62.8,60.7,29.97,NNE,22,0.0,0.0,93,0.00,CLR,,0.00,WeatherDisplay:10.37,2013-02-11 07:15:00,
2013-02-11 01:20:00,62.8,60.7,29.97,North,0,0.0,0.0,93,0.00,CLR,,0.00,WeatherDisplay:10.37,2013-02-11 07:20:00,
2013-02-11 01:25:00,62.8,60.7,29.97,South,180,0.0,0.0,93,0.00,CLR,,0.00,WeatherDisplay:10.37,2013-02-11 07:25:00,
2013-02-11 01:30:00,63.0,61.2,29.97,South,180,0.0,0.0,94,0.00,CLR,,0.00,WeatherDisplay:10.37,2013-02-11 07:30:00,
2013-02-11 01:35:00,63.0,61.2,29.97,SSE,158,0.0,0.0,94,0.00,CLR,,0.00,WeatherDisplay:10.37,2013-02-11 07:35:00,
2013-02-11 01:40:00,63.0,61.2,29.97,NW,315,0.0,0.0,94,0.00,CLR,,0.00,WeatherDisplay:10.37,2013-02-11 07:40:00,
2013-02-11 01:45:00,63.0,61.2,29.97,SSW,202,0.0,0.0,94,0.00,CLR,,0.00,WeatherDisplay:10.37,2013-02-11 07:45:00,
2013-02-11 01:50:00,63.0,61.2,29.97,SSW,202,0.0,0.0,94,0.00,CLR,,0.00,WeatherDisplay:10.37,2013-02-11 07:50:00,
2013-02-11 01:55:00,63.0,61.2,29.97,South,180,0.0,0.0,94,0.00,CLR,,0.00,WeatherDisplay:10.37,2013-02-11 07:55:00,
2013-02-11 02:00:00,63.0,61.2,29.97,South,180,0.0,0.0,94,0.00,CLR,,0.00,WeatherDisplay:10.37,2013-02-11 08:00:00,
2013-02-11 02:05:00,63.0,61.2,29.97,North,0,0.0,0.0,94,0.00,CLR,,0.00,WeatherDisplay:10.37,2013-02-11 08:05:00,
2013-02-11 02:10:00,63.0,61.2,29.97,North,0,0.0,0.0,94,0.00,CLR,,0.00,WeatherDisplay:10.37,2013-02-11 08:10:00,
2013-02-11 02:15:00,63.0,61.2,29.97,North,0,0.0,0.0,94,0.00,CLR,,0.00,WeatherDisplay:10.37,2013-02-11 08:15:00,
2013-02-11 02:20:00,63.1,61.4,29.97,North,0,0.0,0.0,94,0.00,CLR,,0.00,WeatherDisplay:10.37,2013-02-11 08:20:00,
2013-02-11 02:25:00,63.1,61.7,29.97,North,0,0.0,0.0,95,0.00,CLR,,0.00,WeatherDisplay:10.37,2013-02-11 08:25:00,
2013-02-11 02:30:00,63.1,61.4,29.94,North,0,0.0,0.0,94,0.00,CLR,,0.00,WeatherDisplay:10.37,2013-02-11 08:30:00,
2013-02-11 02:35:00,63.1,61.4,29.94,SSW,202,0.0,0.0,94,0.00,CLR,,0.00,WeatherDisplay:10.37,2013-02-11 08:35:00,
2013-02-11 02:40:00,63.1,61.4,29.94,South,180,0.0,0.0,94,0.00,CLR,,0.00,WeatherDisplay:10.37,2013-02-11 08:40:00,
2013-02-11 02:45:00,63.1,61.7,29.97,South,180,0.0,0.0,95,0.00,CLR,,0.00,WeatherDisplay:10.37,2013-02-11 08:45:00,
2013-02-11 02:51:00,63.1,61.7,29.97,North,0,0.0,0.0,95,0.00,CLR,,0.00,WeatherDisplay:10.37,2013-02-11 08:51:00,
2013-02-11 02:56:00,63.1,61.7,29.97,North,0,0.0,0.0,95,0.00,CLR,,0.00,WeatherDisplay:10.37,2013-02-11 08:56:00,
2013-02-11 03:01:00,63.1,61.7,29.97,North,0,0.0,0.0,95,0.00,CLR,,0.00,WeatherDisplay:10.37,2013-02-11 09:01:00,
2013-02-11 03:06:00,63.1,61.7,29.97,North,0,0.0,0.0,95,0.00,CLR,,0.00,WeatherDisplay:10.37,2013-02-11 09:06:00,
2013-02-11 03:11:00,63.1,61.7,29.97,South,180,0.0,0.0,95,0.00,CLR,,0.00,WeatherDisplay:10.37,2013-02-11 09:11:00,
2013-02-11 03:16:00,63.3,61.9,29.94,SW,225,0.0,0.0,95,0.00,CLR,,0.00,WeatherDisplay:10.37,2013-02-11 09:16:00,
2013-02-11 03:21:00,63.3,61.9,29.94,South,180,1.4,1.4,95,0.00,CLR,,0.00,WeatherDisplay:10.37,2013-02-11 09:21:00,
2013-02-11 03:26:00,63.3,61.9,29.94,South,180,0.0,0.0,95,0.00,CLR,,0.00,WeatherDisplay:10.37,2013-02-11 09:26:00,
2013-02-11 03:31:00,63.5,62.0,29.97,South,180,0.0,0.0,95,0.00,CLR,,0.00,WeatherDisplay:10.37,2013-02-11 09:31:00,
2013-02-11 03:36:00,63.5,62.3,29.97,SSE,158,0.0,0.0,96,0.00,CLR,,0.00,WeatherDisplay:10.37,2013-02-11 09:36:00,
2013-02-11 03:41:00,63.5,62.3,29.97,SSE,158,0.0,0.0,96,0.00,CLR,,0.00,WeatherDisplay:10.37,2013-02-11 09:41:00,
2013-02-11 03:46:00,63.7,62.5,29.94,SSE,158,4.6,4.6,96,0.00,CLR,,0.00,WeatherDisplay:10.37,2013-02-11 09:46:00,
2013-02-11 03:51:00,63.9,62.7,29.94,SSE,158,4.6,4.6,96,0.00,CLR,,0.00,WeatherDisplay:10.37,2013-02-11 09:51:00,
2013-02-11 03:56:00,64.0,62.9,29.94,South,180,4.6,4.6,96,0.00,CLR,,0.00,WeatherDisplay:10.37,2013-02-11 09:56:00,
2013-02-11 04:01:00,64.0,63.2,29.94,South,180,3.5,3.5,97,0.00,CLR,,0.00,WeatherDisplay:10.37,2013-02-11 10:01:00,
2013-02-11 04:06:00,64.2,63.4,29.94,South,180,0.0,0.0,97,0.00,CLR,,0.00,WeatherDisplay:10.37,2013-02-11 10:06:00,
2013-02-11 04:11:00,64.6,63.7,29.94,SSE,158,0.0,0.0,97,0.00,CLR,,0.00,WeatherDisplay:10.37,2013-02-11 10:11:00,
2013-02-11 04:16:00,65.1,64.2,29.97,NNE,22,0.0,0.0,97,0.00,CLR,,0.00,WeatherDisplay:10.37,2013-02-11 10:16:00,
2013-02-11 04:21:00,65.5,64.6,29.97,North,0,1.1,0.0,97,0.00,CLR,,0.00,WeatherDisplay:10.37,2013-02-11 10:21:00,
2013-02-11 04:26:00,65.7,64.8,29.97,North,0,0.0,0.0,97,0.00,CLR,,0.00,WeatherDisplay:10.37,2013-02-11 10:26:00,
2013-02-11 04:31:00,65.7,64.8,29.97,NNW,338,0.0,0.0,97,0.00,CLR,,0.00,WeatherDisplay:10.37,2013-02-11 10:31:00,
2013-02-11 04:36:00,65.7,64.8,29.97,North,0,0.0,0.0,97,0.00,CLR,,0.00,WeatherDisplay:10.37,2013-02-11 10:36:00,
2013-02-11 04:41:00,65.7,64.8,29.97,North,0,0.0,0.0,97,0.00,CLR,,0.00,WeatherDisplay:10.37,2013-02-11 10:41:00,
2013-02-11 04:46:00,64.8,63.6,29.97,North,0,15.0,15.0,96,0.00,CLR,,0.00,WeatherDisplay:10.37,2013-02-11 10:46:00,
2013-02-11 04:51:00,63.5,61.1,29.97,North,0,20.6,20.6,92,0.00,CLR,,0.00,WeatherDisplay:10.37,2013-02-11 10:51:00,
2013-02-11 04:56:00,62.8,59.2,29.97,NNW,338,15.0,15.0,88,0.00,CLR,,0.00,WeatherDisplay:10.37,2013-02-11 10:56:00,
2013-02-11 05:01:00,62.1,57.8,30.03,NNW,338,15.0,15.0,86,0.00,CLR,,0.00,WeatherDisplay:10.37,2013-02-11 11:01:00,
2013-02-11 05:06:00,60.8,54.6,30.03,North,0,15.0,15.0,80,0.00,CLR,,0.00,WeatherDisplay:10.37,2013-02-11 11:06:00,
2013-02-11 05:11:00,60.1,54.6,30.03,North,0,13.0,13.0,82,0.00,CLR,,0.00,WeatherDisplay:10.37,2013-02-11 11:11:00,
2013-02-11 05:16:00,59.4,53.9,30.03,NNE,22,12.7,12.7,82,0.00,CLR,,0.00,WeatherDisplay:10.37,2013-02-11 11:16:00,
2013-02-11 05:21:00,59.0,53.8,30.03,North,0,11.5,11.5,83,0.00,CLR,,0.00,WeatherDisplay:10.37,2013-02-11 11:21:00,
2013-02-11 05:26:00,58.8,54.3,30.03,NNW,338,6.9,6.9,85,0.00,CLR,,0.00,WeatherDisplay:10.37,2013-02-11 11:26:00,
2013-02-11 05:31:00,58.5,54.0,30.00,North,0,10.4,10.4,85,0.00,CLR,,0.00,WeatherDisplay:10.37,2013-02-11 11:31:00,
2013-02-11 05:36:00,58.3,54.1,30.00,NNW,338,8.1,8.1,86,0.00,CLR,,0.00,WeatherDisplay:10.37,2013-02-11 11:36:00,
2013-02-11 05:41:00,58.1,53.9,30.00,North,0,4.6,4.6,86,0.00,CLR,,0.00,WeatherDisplay:10.37,2013-02-11 11:41:00,
2013-02-11 05:46:00,57.9,54.1,30.03,North,0,4.7,4.7,87,0.00,CLR,,0.00,WeatherDisplay:10.37,2013-02-11 11:46:00,
2013-02-11 05:51:00,57.7,53.9,30.03,North,0,6.9,6.9,87,0.00,CLR,,0.00,WeatherDisplay:10.37,2013-02-11 11:51:00,
2013-02-11 05:56:00,57.6,53.7,30.03,NNW,338,4.3,4.3,87,0.00,CLR,,0.00,WeatherDisplay:10.37,2013-02-11 11:56:00,
2013-02-11 06:01:00,57.6,54.0,30.03,NNE,22,8.1,8.1,88,0.00,CLR,,0.00,WeatherDisplay:10.37,2013-02-11 12:01:00,
2013-02-11 06:06:00,57.4,53.9,30.03,NNW,338,3.5,3.5,88,0.00,CLR,,0.00,WeatherDisplay:10.37,2013-02-11 12:06:00,
2013-02-11 06:11:00,57.4,54.2,30.03,NNW,338,3.6,3.6,89,0.00,CLR,,0.00,WeatherDisplay:10.37,2013-02-11 12:11:00,
2013-02-11 06:16:00,57.4,54.2,30.06,NNE,22,3.5,3.5,89,0.00,CLR,,0.00,WeatherDisplay:10.37,2013-02-11 12:16:00,
2013-02-11 06:21:00,57.2,54.3,30.06,North,0,8.1,8.1,90,0.00,CLR,,0.00,WeatherDisplay:10.37,2013-02-11 12:21:00,
2013-02-11 06:26:00,57.4,54.5,30.06,NNW,338,3.6,3.6,90,0.00,CLR,,0.00,WeatherDisplay:10.37,2013-02-11 12:26:00,
2013-02-11 06:31:00,57.4,54.8,30.09,NNE,22,3.5,3.5,91,0.00,CLR,,0.00,WeatherDisplay:10.37,2013-02-11 12:31:00,
2013-02-11 06:36:00,57.4,54.8,30.09,NNW,338,4.6,4.6,91,0.00,CLR,,0.00,WeatherDisplay:10.37,2013-02-11 12:36:00,
2013-02-11 06:41:00,57.4,54.8,30.09,North,0,7.8,7.8,91,0.00,CLR,,0.00,WeatherDisplay:10.37,2013-02-11 12:41:00,
2013-02-11 06:46:00,57.4,54.8,30.09,NNW,338,8.1,8.1,91,0.00,CLR,,0.00,WeatherDisplay:10.37,2013-02-11 12:46:00,
2013-02-11 06:51:00,57.4,54.8,30.09,NNE,22,5.9,5.9,91,0.00,CLR,,0.00,WeatherDisplay:10.37,2013-02-11 12:51:00,
2013-02-11 06:56:00,57.2,54.6,30.09,NNE,22,5.8,5.8,91,0.00,CLR,,0.00,WeatherDisplay:10.37,2013-02-11 12:56:00,
2013-02-11 07:01:00,57.2,54.6,30.09,NE,45,5.8,5.8,91,0.00,CLR,,0.00,WeatherDisplay:10.37,2013-02-11 13:01:00,
2013-02-11 07:06:00,57.2,54.6,30.09,NNE,22,8.1,8.1,91,0.00,CLR,,0.00,WeatherDisplay:10.37,2013-02-11 13:06:00,
2013-02-11 07:11:00,57.0,54.4,30.09,North,0,9.8,9.8,91,0.00,CLR,,0.00,WeatherDisplay:10.37,2013-02-11 13:11:00,
2013-02-11 07:16:00,57.0,54.1,30.06,North,0,10.4,10.4,90,0.00,CLR,,0.00,WeatherDisplay:10.37,2013-02-11 13:16:00,
2013-02-11 07:21:00,57.0,53.8,30.06,NNE,22,10.4,10.4,89,0.00,CLR,,0.00,WeatherDisplay:10.37,2013-02-11 13:21:00,
2013-02-11 07:26:00,57.0,54.1,30.06,NNE,22,9.2,9.2,90,0.00,CLR,,0.00,WeatherDisplay:10.37,2013-02-11 13:26:00,
2013-02-11 07:31:00,56.8,53.6,30.09,NNE,22,9.2,9.2,89,0.00,CLR,,0.00,WeatherDisplay:10.37,2013-02-11 13:31:00,
2013-02-11 07:36:00,56.8,53.6,30.09,North,0,13.8,13.8,89,0.00,CLR,,0.00,WeatherDisplay:10.37,2013-02-11 13:36:00,
2013-02-11 07:41:00,56.8,53.6,30.09,North,0,8.1,8.1,89,0.00,CLR,,0.00,WeatherDisplay:10.37,2013-02-11 13:41:00,
2013-02-11 07:46:00,56.8,53.6,30.09,North,0,6.9,7.1,89,0.00,CLR,,0.00,WeatherDisplay:10.37,2013-02-11 13:46:00,
2013-02-11 07:51:00,56.8,53.6,30.09,North,0,8.1,8.1,89,0.00,CLR,,0.00,WeatherDisplay:10.37,2013-02-11 13:51:00,
2013-02-11 07:56:00,56.7,53.5,30.09,NNE,22,8.1,8.1,89,0.00,CLR,,0.00,WeatherDisplay:10.37,2013-02-11 13:56:00,
2013-02-11 08:01:00,56.7,53.1,30.06,NNE,22,11.5,11.5,88,0.00,CLR,,0.00,WeatherDisplay:10.37,2013-02-11 14:01:00,
2013-02-11 08:06:00,56.7,53.1,30.06,North,0,10.4,10.4,88,0.00,CLR,,0.00,WeatherDisplay:10.37,2013-02-11 14:06:00,
2013-02-11 08:11:00,56.7,52.8,30.06,North,0,8.1,8.1,87,0.00,CLR,,0.00,WeatherDisplay:10.37,2013-02-11 14:11:00,
2013-02-11 08:16:00,56.5,52.7,30.09,North,0,15.2,15.2,87,0.00,CLR,,0.00,WeatherDisplay:10.37,2013-02-11 14:16:00,
2013-02-11 08:21:00,56.5,52.3,30.09,NNE,22,2.3,2.3,86,0.00,CLR,,0.00,WeatherDisplay:10.37,2013-02-11 14:21:00,
2013-02-11 08:27:00,56.5,52.3,30.09,North,0,5.8,5.8,86,0.00,CLR,,0.00,WeatherDisplay:10.37,2013-02-11 14:27:00,
2013-02-11 08:32:00,56.5,52.3,30.12,NNE,22,10.4,10.4,86,0.00,CLR,,0.00,WeatherDisplay:10.37,2013-02-11 14:32:00,
2013-02-11 08:37:00,56.3,51.8,30.12,NNW,338,12.7,12.7,85,0.00,CLR,,0.00,WeatherDisplay:10.37,2013-02-11 14:37:00,
2013-02-11 08:42:00,56.3,51.8,30.12,NNW,338,13.8,13.8,85,0.00,CLR,,0.00,WeatherDisplay:10.37,2013-02-11 14:42:00,
2013-02-11 08:47:00,56.3,51.5,30.12,NNE,22,6.9,6.9,84,0.00,CLR,,0.00,WeatherDisplay:10.37,2013-02-11 14:47:00,
2013-02-11 08:52:00,55.9,51.2,30.12,NNW,338,8.1,8.1,84,0.00,CLR,,0.00,WeatherDisplay:10.37,2013-02-11 14:52:00,
2013-02-11 08:57:00,55.6,50.8,30.12,North,0,6.9,6.9,84,0.00,CLR,,0.00,WeatherDisplay:10.37,2013-02-11 14:57:00,
2013-02-11 09:02:00,55.2,50.5,30.15,North,0,10.4,10.4,84,0.00,CLR,,0.00,WeatherDisplay:10.37,2013-02-11 15:02:00,
2013-02-11 09:07:00,55.0,50.6,30.15,North,0,8.1,8.1,85,0.00,CLR,,0.00,WeatherDisplay:10.37,2013-02-11 15:07:00,
2013-02-11 09:12:00,54.9,50.4,30.15,North,0,10.4,10.4,85,0.00,CLR,,0.00,WeatherDisplay:10.37,2013-02-11 15:12:00,
2013-02-11 09:17:00,54.7,50.6,30.15,North,0,10.4,10.4,86,0.00,CLR,,0.00,WeatherDisplay:10.37,2013-02-11 15:17:00,
2013-02-11 09:22:00,54.5,50.4,30.15,NNE,22,10.5,10.5,86,0.00,CLR,,0.00,WeatherDisplay:10.37,2013-02-11 15:22:00,
2013-02-11 09:27:00,54.5,50.7,30.15,NNE,22,9.2,9.2,87,0.00,CLR,,0.00,WeatherDisplay:10.37,2013-02-11 15:27:00,
2013-02-11 09:32:00,54.5,50.7,30.15,North,0,8.7,8.7,87,0.00,CLR,,0.00,WeatherDisplay:10.37,2013-02-11 15:32:00,
2013-02-11 09:37:00,54.5,51.0,30.15,North,0,9.2,9.2,88,0.00,CLR,,0.00,WeatherDisplay:10.37,2013-02-11 15:37:00,
2013-02-11 09:42:00,54.5,51.0,30.15,NNE,22,13.8,13.8,88,0.00,CLR,,0.00,WeatherDisplay:10.37,2013-02-11 15:42:00,
2013-02-11 09:47:00,54.5,51.0,30.12,ENE,68,15.0,15.0,88,0.00,CLR,,0.00,WeatherDisplay:10.37,2013-02-11 15:47:00,
2013-02-11 09:52:00,54.5,51.3,30.12,NNW,338,5.8,5.8,89,0.00,CLR,,0.00,WeatherDisplay:10.37,2013-02-11 15:52:00,
2013-02-11 09:57:00,54.7,51.5,30.12,North,0,8.1,8.1,89,0.00,CLR,,0.00,WeatherDisplay:10.37,2013-02-11 15:57:00,
2013-02-11 10:02:00,54.7,51.5,30.12,North,0,4.6,4.6,89,0.00,CLR,,0.00,WeatherDisplay:10.37,2013-02-11 16:02:00,
2013-02-11 10:07:00,54.7,51.5,30.12,NE,45,8.1,8.1,89,0.00,CLR,,0.00,WeatherDisplay:10.37,2013-02-11 16:07:00,
2013-02-11 10:12:00,55.0,51.9,30.12,NNE,22,9.2,9.2,89,0.00,CLR,,0.00,WeatherDisplay:10.37,2013-02-11 16:12:00,
2013-02-11 10:17:00,55.0,51.9,30.15,North,0,6.0,6.0,89,0.00,CLR,,0.00,WeatherDisplay:10.37,2013-02-11 16:17:00,
2013-02-11 10:22:00,55.0,51.9,30.15,North,0,10.4,10.4,89,0.00,CLR,,0.00,WeatherDisplay:10.37,2013-02-11 16:22:00,
2013-02-11 10:27:00,55.0,51.9,30.15,NNW,338,10.2,10.2,89,0.00,CLR,,0.00,WeatherDisplay:10.37,2013-02-11 16:27:00,
2013-02-11 10:32:00,55.0,51.9,30.15,North,0,5.8,5.8,89,0.00,CLR,,0.00,WeatherDisplay:10.37,2013-02-11 16:32:00,
2013-02-11 10:37:00,54.9,51.7,30.15,NNE,22,5.8,5.8,89,0.00,CLR,,0.00,WeatherDisplay:10.37,2013-02-11 16:37:00,
2013-02-11 10:42:00,54.9,51.7,30.15,NE,45,7.1,7.1,89,0.00,CLR,,0.00,WeatherDisplay:10.37,2013-02-11 16:42:00,
2013-02-11 10:47:00,54.9,51.7,30.15,North,0,5.8,5.8,89,0.00,CLR,,0.00,WeatherDisplay:10.37,2013-02-11 16:47:00,
2013-02-11 10:52:00,54.7,51.8,30.15,ENE,68,8.1,8.1,90,0.00,CLR,,0.00,WeatherDisplay:10.37,2013-02-11 16:52:00,
2013-02-11 10:57:00,54.7,51.8,30.15,NNE,22,4.6,4.6,90,0.00,CLR,,0.00,WeatherDisplay:10.37,2013-02-11 16:57:00,
2013-02-11 11:02:00,54.7,52.1,30.12,NNE,22,5.8,5.8,91,0.00,CLR,,0.00,WeatherDisplay:10.37,2013-02-11 17:02:00,
2013-02-11 11:07:00,54.5,51.9,30.12,North,0,15.0,15.0,91,0.00,CLR,,0.00,WeatherDisplay:10.37,2013-02-11 17:07:00,
2013-02-11 11:12:00,54.5,51.9,30.12,ENE,68,3.5,3.5,91,0.00,CLR,,0.00,WeatherDisplay:10.37,2013-02-11 17:12:00,
2013-02-11 11:17:00,54.5,51.9,30.15,North,0,3.5,3.5,91,0.00,CLR,,0.00,WeatherDisplay:10.37,2013-02-11 17:17:00,
2013-02-11 11:22:00,54.3,51.7,30.15,North,0,3.1,3.1,91,0.00,CLR,,0.00,WeatherDisplay:10.37,2013-02-11 17:22:00,
2013-02-11 11:27:00,54.3,51.7,30.15,NE,45,6.9,6.9,91,0.00,CLR,,0.00,WeatherDisplay:10.37,2013-02-11 17:27:00,
2013-02-11 11:32:00,54.1,51.6,30.15,NE,45,6.9,6.9,91,0.00,CLR,,0.00,WeatherDisplay:10.37,2013-02-11 17:32:00,
2013-02-11 11:37:00,54.1,51.9,30.15,North,0,8.1,8.1,92,0.00,CLR,,0.00,WeatherDisplay:10.37,2013-02-11 17:37:00,
2013-02-11 11:42:00,54.1,51.9,30.15,NNE,22,8.1,8.1,92,0.00,CLR,,0.00,WeatherDisplay:10.37,2013-02-11 17:42:00,
2013-02-11 11:47:00,54.1,52.2,30.09,NNW,338,7.8,7.8,93,0.00,CLR,,0.00,WeatherDisplay:10.37,2013-02-11 17:47:00,
2013-02-11 11:52:00,54.0,52.0,30.09,North,0,8.1,8.1,93,0.00,CLR,,0.00,WeatherDisplay:10.37,2013-02-11 17:52:00,
2013-02-11 11:57:00,53.8,51.8,30.09,NNE,22,5.8,5.8,93,0.00,CLR,,0.00,WeatherDisplay:10.37,2013-02-11 17:57:00,
2013-02-11 12:02:00,54.0,52.0,30.06,North,0,8.1,8.1,93,0.00,CLR,,0.00,WeatherDisplay:10.37,2013-02-11 18:02:00,
2013-02-11 12:08:00,54.0,52.0,30.06,NNE,22,9.2,9.2,93,0.00,CLR,,0.00,WeatherDisplay:10.37,2013-02-11 18:08:00,
2013-02-11 12:13:00,54.0,52.3,30.06,NE,45,10.5,10.5,94,0.00,CLR,,0.00,WeatherDisplay:10.37,2013-02-11 18:13:00,
2013-02-11 12:18:00,54.0,52.3,30.06,North,0,10.4,10.4,94,0.00,CLR,,0.00,WeatherDisplay:10.37,2013-02-11 18:18:00,
2013-02-11 12:23:00,54.0,52.3,30.06,North,0,5.8,5.8,94,0.00,CLR,,0.00,WeatherDisplay:10.37,2013-02-11 18:23:00,
2013-02-11 12:28:00,54.0,52.3,30.06,NNE,22,8.1,8.1,94,0.00,CLR,,0.00,WeatherDisplay:10.37,2013-02-11 18:28:00,
2013-02-11 12:33:00,54.0,52.3,30.09,North,0,5.8,5.8,94,0.00,CLR,,0.00,WeatherDisplay:10.37,2013-02-11 18:33:00,
2013-02-11 12:38:00,54.1,52.5,30.09,North,0,1.1,2.0,94,0.00,CLR,,0.00,WeatherDisplay:10.37,2013-02-11 18:38:00,
2013-02-11 12:43:00,54.3,52.6,30.09,South,180,6.9,6.9,94,0.00,CLR,,0.00,WeatherDisplay:10.37,2013-02-11 18:43:00,
2013-02-11 12:48:00,54.3,52.9,30.06,SW,225,4.6,4.6,95,0.33,RA,,0.33,WeatherDisplay:10.37,2013-02-11 18:48:00,
2013-02-11 12:53:00,54.3,52.9,30.06,NE,45,5.8,5.8,95,0.33,RA,,0.33,WeatherDisplay:10.37,2013-02-11 18:53:00,
2013-02-11 12:58:00,54.5,53.1,30.06,ESE,112,3.5,3.5,95,0.33,,,0.33,WeatherDisplay:10.37,2013-02-11 18:58:00,
2013-02-11 13:03:00,54.7,53.3,30.09,NNE,22,5.8,5.8,95,0.33,CLR,,0.33,WeatherDisplay:10.37,2013-02-11 19:03:00,
2013-02-11 13:08:00,54.9,53.5,30.09,SE,135,5.8,5.8,95,0.33,CLR,,0.33,WeatherDisplay:10.37,2013-02-11 19:08:00,
2013-02-11 13:13:00,55.0,53.6,30.09,SE,135,5.8,5.8,95,0.33,CLR,,0.33,WeatherDisplay:10.37,2013-02-11 19:13:00,
2013-02-11 13:18:00,55.0,53.6,30.06,NNW,338,3.5,3.5,95,0.33,CLR,,0.33,WeatherDisplay:10.37,2013-02-11 19:18:00,
2013-02-11 13:23:00,55.2,53.8,30.06,South,180,2.9,2.9,95,0.33,CLR,,0.33,WeatherDisplay:10.37,2013-02-11 19:23:00,
2013-02-11 13:28:00,55.4,54.0,30.03,North,0,4.7,4.7,95,0.33,CLR,,0.33,WeatherDisplay:10.37,2013-02-11 19:28:00,
2013-02-11 13:33:00,55.6,54.2,30.03,North,0,6.9,6.9,95,0.33,CLR,,0.33,WeatherDisplay:10.37,2013-02-11 19:33:00,
2013-02-11 13:38:00,55.6,54.2,30.03,North,0,5.4,5.4,95,0.33,CLR,,0.33,WeatherDisplay:10.37,2013-02-11 19:38:00,
2013-02-11 13:43:00,55.8,54.6,30.03,East,90,2.6,2.6,96,0.33,CLR,,0.33,WeatherDisplay:10.37,2013-02-11 19:43:00,
2013-02-11 13:48:00,55.8,54.3,30.03,North,0,5.9,5.9,95,0.00,CLR,,0.33,WeatherDisplay:10.37,2013-02-11 19:48:00,
2013-02-11 13:53:00,55.6,54.2,30.03,NNE,22,4.0,4.0,95,0.00,CLR,,0.33,WeatherDisplay:10.37,2013-02-11 19:53:00,
2013-02-11 13:58:00,55.6,54.2,30.03,NW,315,5.8,5.8,95,0.00,CLR,,0.33,WeatherDisplay:10.37,2013-02-11 19:58:00,
2013-02-11 14:03:00,55.6,54.2,30.03,NNE,22,4.6,4.6,95,0.00,CLR,,0.33,WeatherDisplay:10.37,2013-02-11 20:03:00,
2013-02-11 14:08:00,55.6,54.2,30.03,ENE,68,6.9,6.9,95,0.00,CLR,,0.33,WeatherDisplay:10.37,2013-02-11 20:08:00,
2013-02-11 14:13:00,55.6,54.2,30.03,North,0,4.6,4.6,95,0.00,CLR,,0.33,WeatherDisplay:10.37,2013-02-11 20:13:00,
2013-02-11 14:18:00,55.6,54.2,30.03,NNW,338,4.6,4.6,95,0.00,CLR,,0.33,WeatherDisplay:10.37,2013-02-11 20:18:00,
2013-02-11 14:23:00,55.6,54.2,30.03,North,0,4.9,4.9,95,0.00,CLR,,0.33,WeatherDisplay:10.37,2013-02-11 20:23:00,
2013-02-11 14:28:00,55.6,54.2,30.00,NNE,22,5.8,5.8,95,0.00,CLR,,0.33,WeatherDisplay:10.37,2013-02-11 20:28:00,
2013-02-11 14:33:00,55.6,54.2,30.00,NW,315,5.8,5.8,95,0.00,CLR,,0.33,WeatherDisplay:10.37,2013-02-11 20:33:00,
2013-02-11 14:38:00,55.6,54.2,30.00,North,0,6.9,6.9,95,0.00,CLR,,0.33,WeatherDisplay:10.37,2013-02-11 20:38:00,
2013-02-11 14:43:00,55.6,54.2,30.03,NNE,22,5.8,5.8,95,0.00,CLR,,0.33,WeatherDisplay:10.37,2013-02-11 20:43:00,
2013-02-11 14:48:00,55.6,54.2,30.03,ENE,68,3.8,4.3,95,0.00,CLR,,0.33,WeatherDisplay:10.37,2013-02-11 20:48:00,
2013-02-11 14:53:00,55.6,54.2,30.03,North,0,6.9,6.9,95,0.00,CLR,,0.33,WeatherDisplay:10.37,2013-02-11 20:53:00,
2013-02-11 14:58:00,55.4,54.0,30.06,North,0,4.6,4.6,95,0.00,CLR,,0.33,WeatherDisplay:10.37,2013-02-11 20:58:00,
2013-02-11 15:03:00,55.6,54.2,30.06,North,0,6.9,6.9,95,0.00,CLR,,0.33,WeatherDisplay:10.37,2013-02-11 21:03:00,
2013-02-11 15:08:00,55.6,54.2,30.06,SSE,158,2.3,2.3,95,0.00,CLR,,0.33,WeatherDisplay:10.37,2013-02-11 21:08:00,
2013-02-11 15:13:00,55.6,54.2,30.03,NNE,22,4.0,4.0,95,0.00,CLR,,0.33,WeatherDisplay:10.37,2013-02-11 21:13:00,
2013-02-11 15:18:00,55.6,54.2,30.03,NNW,338,4.6,4.6,95,0.00,CLR,,0.33,WeatherDisplay:10.37,2013-02-11 21:18:00,
2013-02-11 15:23:00,55.6,54.2,30.03,ESE,112,4.3,4.3,95,0.00,CLR,,0.33,WeatherDisplay:10.37,2013-02-11 21:23:00,
2013-02-11 15:28:00,55.4,54.0,30.03,NNE,22,7.6,7.6,95,0.00,CLR,,0.33,WeatherDisplay:10.37,2013-02-11 21:28:00,
2013-02-11 15:33:00,55.4,54.0,30.03,NNE,22,5.6,5.6,95,0.00,CLR,,0.33,WeatherDisplay:10.37,2013-02-11 21:33:00,
2013-02-11 15:38:00,55.2,54.1,30.03,NNW,338,4.6,4.6,96,0.00,CLR,,0.33,WeatherDisplay:10.37,2013-02-11 21:38:00,
2013-02-11 15:43:00,55.4,54.0,30.06,NNW,338,5.8,5.8,95,0.00,CLR,,0.33,WeatherDisplay:10.37,2013-02-11 21:43:00,
2013-02-11 15:48:00,55.4,54.0,30.06,ENE,68,1.1,0.0,95,0.00,CLR,,0.33,WeatherDisplay:10.37,2013-02-11 21:48:00,
2013-02-11 15:53:00,55.4,54.3,30.06,ESE,112,0.0,0.0,96,0.00,CLR,,0.33,WeatherDisplay:10.37,2013-02-11 21:53:00,
2013-02-11 15:58:00,55.4,54.3,30.03,NNE,22,2.3,2.6,96,0.00,CLR,,0.33,WeatherDisplay:10.37,2013-02-11 21:58:00,
2013-02-11 16:03:00,55.4,54.3,30.03,North,0,4.6,4.6,96,0.00,CLR,,0.33,WeatherDisplay:10.37,2013-02-11 22:03:00,
2013-02-11 16:08:00,55.4,54.3,30.03,NNW,338,3.5,3.5,96,0.00,CLR,,0.33,WeatherDisplay:10.37,2013-02-11 22:08:00,
2013-02-11 16:13:00,55.6,54.5,30.06,NNE,22,3.5,3.5,96,0.00,CLR,,0.33,WeatherDisplay:10.37,2013-02-11 22:13:00,
2013-02-11 16:18:00,55.6,54.7,30.06,SE,135,2.3,2.3,97,0.00,CLR,,0.33,WeatherDisplay:10.37,2013-02-11 22:18:00,
2013-02-11 16:23:00,55.6,54.7,30.06,North,0,2.6,2.6,97,0.00,CLR,,0.33,WeatherDisplay:10.37,2013-02-11 22:23:00,
2013-02-11 16:28:00,55.6,54.7,30.03,North,0,4.6,4.6,97,0.00,CLR,,0.33,WeatherDisplay:10.37,2013-02-11 22:28:00,
2013-02-11 16:33:00,55.6,54.7,30.03,North,0,4.6,4.6,97,0.00,CLR,,0.33,WeatherDisplay:10.37,2013-02-11 22:33:00,
2013-02-11 16:38:00,55.6,54.7,30.03,NNE,22,2.4,2.4,97,0.00,CLR,,0.33,WeatherDisplay:10.37,2013-02-11 22:38:00,
2013-02-11 16:43:00,55.6,54.7,30.03,North,0,4.6,4.6,97,0.00,CLR,,0.33,WeatherDisplay:10.37,2013-02-11 22:43:00,
2013-02-11 16:49:00,55.8,54.9,30.03,NNW,338,3.1,0.0,97,0.00,CLR,,0.33,WeatherDisplay:10.37,2013-02-11 22:49:00,
2013-02-11 16:54:00,55.8,54.9,30.03,North,0,2.3,2.3,97,0.00,CLR,,0.33,WeatherDisplay:10.37,2013-02-11 22:54:00,
2013-02-11 16:59:00,55.8,54.9,30.03,North,0,0.0,2.2,97,0.00,CLR,,0.33,WeatherDisplay:10.37,2013-02-11 22:59:00,
2013-02-11 17:04:00,55.8,54.9,30.03,North,0,0.0,2.2,97,0.00,CLR,,0.33,WeatherDisplay:10.37,2013-02-11 23:04:00,
2013-02-11 17:09:00,55.8,54.9,30.03,North,0,0.0,2.2,97,0.00,CLR,,0.33,WeatherDisplay:10.37,2013-02-11 23:09:00,
2013-02-11 17:14:00,55.8,54.9,30.03,North,0,0.0,2.2,97,0.00,CLR,,0.33,WeatherDisplay:10.37,2013-02-11 23:14:00,
2013-02-11 17:19:00,55.8,54.9,30.03,North,0,0.0,2.2,97,0.00,CLR,,0.33,WeatherDisplay:10.37,2013-02-11 23:19:00,
2013-02-11 17:24:00,55.8,54.9,30.03,North,0,0.0,2.2,97,0.00,CLR,,0.33,WeatherDisplay:10.37,2013-02-11 23:24:00,
2013-02-11 17:29:00,55.8,54.9,30.03,North,0,0.0,2.2,97,0.00,CLR,,0.33,WeatherDisplay:10.37,2013-02-11 23:29:00,
2013-02-11 17:34:00,55.8,54.9,30.03,North,0,0.0,2.2,97,0.00,CLR,,0.33,WeatherDisplay:10.37,2013-02-11 23:34:00,
2013-02-11 17:39:00,55.8,54.9,30.03,North,0,0.0,2.2,97,0.00,CLR,,0.33,WeatherDisplay:10.37,2013-02-11 23:39:00,
2013-02-11 17:44:00,55.8,54.9,30.03,North,0,0.0,2.2,97,0.00,CLR,,0.33,WeatherDisplay:10.37,2013-02-11 23:44:00,
2013-02-11 17:49:00,55.8,54.9,30.03,North,0,0.0,2.2,97,0.00,CLR,,0.33,WeatherDisplay:10.37,2013-02-11 23:49:00,
2013-02-11 17:54:00,55.8,54.9,30.03,North,0,0.0,2.2,97,0.00,CLR,,0.33,WeatherDisplay:10.37,2013-02-11 23:54:00,
2013-02-11 17:59:00,55.8,54.9,30.03,North,0,0.0,2.2,97,0.00,CLR,,0.33,WeatherDisplay:10.37,2013-02-11 23:59:00,
2013-02-11 18:04:00,55.8,54.9,30.03,North,0,0.0,2.2,97,0.00,CLR,,0.33,WeatherDisplay:10.37,2013-02-12 00:04:00,
2013-02-11 18:09:00,55.8,54.9,30.03,North,0,0.0,2.2,97,0.00,CLR,,0.33,WeatherDisplay:10.37,2013-02-12 00:09:00,
2013-02-11 18:14:00,55.8,54.9,30.03,North,0,0.0,2.2,97,0.00,CLR,,0.33,WeatherDisplay:10.37,2013-02-12 00:14:00,
2013-02-11 18:19:00,55.8,54.9,30.03,North,0,0.0,2.2,97,0.00,CLR,,0.33,WeatherDisplay:10.37,2013-02-12 00:19:00,
2013-02-11 18:24:00,55.8,54.9,30.03,North,0,0.0,2.2,97,0.00,CLR,,0.33,WeatherDisplay:10.37,2013-02-12 00:24:00,
2013-02-11 18:29:00,55.8,54.9,30.03,North,0,0.0,2.2,97,0.00,CLR,,0.33,WeatherDisplay:10.37,2013-02-12 00:29:00,
2013-02-11 18:34:00,55.8,54.9,30.03,North,0,0.0,2.2,97,0.00,CLR,,0.33,WeatherDisplay:10.37,2013-02-12 00:34:00,
2013-02-11 18:39:00,55.8,54.9,30.03,North,0,0.0,2.2,97,0.00,CLR,,0.33,WeatherDisplay:10.37,2013-02-12 00:39:00,
2013-02-11 18:44:00,55.8,54.9,30.03,North,0,0.0,2.2,97,0.00,CLR,,0.33,WeatherDisplay:10.37,2013-02-12 00:44:00,
2013-02-11 18:49:00,55.8,54.9,30.03,North,0,0.0,2.2,97,0.00,CLR,,0.33,WeatherDisplay:10.37,2013-02-12 00:49:00,
2013-02-11 18:54:00,55.8,54.9,30.03,North,0,0.0,2.2,97,0.00,CLR,,0.33,WeatherDisplay:10.37,2013-02-12 00:54:00,
2013-02-11 18:59:00,55.8,54.9,30.03,North,0,0.0,2.2,97,0.00,CLR,,0.33,WeatherDisplay:10.37,2013-02-12 00:59:00,
2013-02-11 19:04:00,55.8,54.9,30.03,North,0,0.0,2.2,97,0.00,CLR,,0.33,WeatherDisplay:10.37,2013-02-12 01:04:00,
2013-02-11 19:09:00,55.8,54.9,30.03,North,0,0.0,2.2,97,0.00,CLR,,0.33,WeatherDisplay:10.37,2013-02-12 01:09:00,
2013-02-11 19:14:00,55.8,54.9,30.03,North,0,0.0,2.2,97,0.00,CLR,,0.33,WeatherDisplay:10.37,2013-02-12 01:14:00,
2013-02-11 19:19:00,55.8,54.9,30.03,North,0,0.0,2.2,97,0.00,CLR,,0.33,WeatherDisplay:10.37,2013-02-12 01:19:00,
2013-02-11 19:24:00,55.8,54.9,30.03,North,0,0.0,2.2,97,0.00,CLR,,0.33,WeatherDisplay:10.37,2013-02-12 01:24:00,
2013-02-11 19:29:00,55.8,54.9,30.03,North,0,0.0,2.2,97,0.00,CLR,,0.33,WeatherDisplay:10.37,2013-02-12 01:29:00,
2013-02-11 19:34:00,55.8,54.9,30.03,North,0,0.0,2.2,97,0.00,CLR,,0.33,WeatherDisplay:10.37,2013-02-12 01:34:00,
2013-02-11 19:39:00,55.8,54.9,30.03,North,0,0.0,2.2,97,0.00,CLR,,0.33,WeatherDisplay:10.37,2013-02-12 01:39:00,
2013-02-11 19:44:00,55.8,54.9,30.03,North,0,0.0,2.2,97,0.00,CLR,,0.33,WeatherDisplay:10.37,2013-02-12 01:44:00,
2013-02-11 19:49:00,55.8,54.9,30.03,North,0,0.0,2.2,97,0.00,CLR,,0.33,WeatherDisplay:10.37,2013-02-12 01:49:00,
2013-02-11 19:54:00,55.8,54.9,30.03,North,0,0.0,2.2,97,0.00,CLR,,0.33,WeatherDisplay:10.37,2013-02-12 01:54:00,
2013-02-11 19:59:00,55.8,54.9,30.03,North,0,0.0,2.2,97,0.00,CLR,,0.33,WeatherDisplay:10.37,2013-02-12 01:59:00,
2013-02-11 20:04:00,55.8,54.9,30.03,North,0,0.0,2.2,97,0.00,CLR,,0.33,WeatherDisplay:10.37,2013-02-12 02:04:00,
2013-02-11 20:09:00,55.8,54.9,30.03,North,0,0.0,2.2,97,0.00,CLR,,0.33,WeatherDisplay:10.37,2013-02-12 02:09:00,
2013-02-11 20:14:00,55.8,54.9,30.03,North,0,0.0,2.2,97,0.00,CLR,,0.33,WeatherDisplay:10.37,2013-02-12 02:14:00,
2013-02-11 20:19:00,55.8,54.9,30.03,North,0,0.0,2.2,97,0.00,CLR,,0.33,WeatherDisplay:10.37,2013-02-12 02:19:00,
2013-02-11 20:24:00,55.8,54.9,30.03,North,0,0.0,2.2,97,0.00,CLR,,0.33,WeatherDisplay:10.37,2013-02-12 02:24:00,
2013-02-11 20:29:00,55.8,54.9,30.03,North,0,0.0,2.2,97,0.00,CLR,,0.33,WeatherDisplay:10.37,2013-02-12 02:29:00,
2013-02-11 20:34:00,55.8,54.9,30.03,North,0,0.0,2.2,97,0.00,CLR,,0.33,WeatherDisplay:10.37,2013-02-12 02:34:00,
2013-02-11 20:39:00,55.8,54.9,30.03,North,0,0.0,2.2,97,0.00,CLR,,0.33,WeatherDisplay:10.37,2013-02-12 02:39:00,
2013-02-11 20:44:00,55.8,54.9,30.03,North,0,0.0,2.2,97,0.00,CLR,,0.33,WeatherDisplay:10.37,2013-02-12 02:44:00,
2013-02-11 20:49:00,55.8,54.9,30.03,North,0,0.0,2.2,97,0.00,CLR,,0.33,WeatherDisplay:10.37,2013-02-12 02:49:00,
2013-02-11 20:54:00,55.8,54.9,30.03,North,0,0.0,2.2,97,0.00,CLR,,0.33,WeatherDisplay:10.37,2013-02-12 02:54:00,
2013-02-11 20:59:00,55.8,54.9,30.03,North,0,0.0,2.2,97,0.00,CLR,,0.33,WeatherDisplay:10.37,2013-02-12 02:59:00,
2013-02-11 21:04:00,55.8,54.9,30.03,North,0,0.0,2.2,97,0.00,CLR,,0.33,WeatherDisplay:10.37,2013-02-12 03:04:00,
2013-02-11 21:09:00,55.8,54.9,30.03,North,0,0.0,2.2,97,0.00,CLR,,0.33,WeatherDisplay:10.37,2013-02-12 03:09:00,
2013-02-11 21:14:00,55.8,54.9,30.03,North,0,0.0,2.2,97,0.00,CLR,,0.33,WeatherDisplay:10.37,2013-02-12 03:14:00,
2013-02-11 21:19:00,55.8,54.9,30.03,North,0,0.0,2.2,97,0.00,CLR,,0.33,WeatherDisplay:10.37,2013-02-12 03:19:00,
2013-02-11 21:24:00,55.8,54.9,30.03,North,0,0.0,2.2,97,0.00,CLR,,0.33,WeatherDisplay:10.37,2013-02-12 03:24:00,
2013-02-11 21:29:00,55.8,54.9,30.03,North,0,0.0,2.2,97,0.00,CLR,,0.33,WeatherDisplay:10.37,2013-02-12 03:29:00,
2013-02-11 21:34:00,55.8,54.9,30.03,North,0,0.0,2.2,97,0.00,CLR,,0.33,WeatherDisplay:10.37,2013-02-12 03:34:00,
2013-02-11 21:39:00,55.8,54.9,30.03,North,0,0.0,2.2,97,0.00,CLR,,0.33,WeatherDisplay:10.37,2013-02-12 03:39:00,
2013-02-11 21:44:00,55.8,54.9,30.03,North,0,0.0,2.2,97,0.00,CLR,,0.33,WeatherDisplay:10.37,2013-02-12 03:44:00,
2013-02-11 21:49:00,55.8,54.9,30.03,North,0,0.0,2.2,97,0.00,CLR,,0.33,WeatherDisplay:10.37,2013-02-12 03:49:00,
2013-02-11 21:54:00,55.8,54.9,30.03,North,0,0.0,2.2,97,0.00,CLR,,0.33,WeatherDisplay:10.37,2013-02-12 03:54:00,
2013-02-11 21:59:00,55.8,54.9,30.03,North,0,0.0,2.2,97,0.00,CLR,,0.33,WeatherDisplay:10.37,2013-02-12 03:59:00,
2013-02-11 22:04:00,55.8,54.9,30.03,North,0,0.0,2.2,97,0.00,CLR,,0.33,WeatherDisplay:10.37,2013-02-12 04:04:00,
2013-02-11 22:10:00,55.8,54.9,30.03,North,0,0.0,2.2,97,0.00,CLR,,0.33,WeatherDisplay:10.37,2013-02-12 04:10:00,
2013-02-11 22:15:00,55.8,54.9,30.03,North,0,0.0,2.2,97,0.00,CLR,,0.33,WeatherDisplay:10.37,2013-02-12 04:15:00,
2013-02-11 22:20:00,55.8,54.9,30.03,North,0,0.0,2.2,97,0.00,CLR,,0.33,WeatherDisplay:10.37,2013-02-12 04:20:00,
2013-02-11 22:25:00,55.8,54.9,30.03,North,0,0.0,2.2,97,0.00,CLR,,0.33,WeatherDisplay:10.37,2013-02-12 04:25:00,
2013-02-11 22:30:00,55.8,54.9,30.03,North,0,0.0,2.2,97,0.00,CLR,,0.33,WeatherDisplay:10.37,2013-02-12 04:30:00,
2013-02-11 22:35:00,55.8,54.9,30.03,North,0,0.0,2.2,97,0.00,CLR,,0.33,WeatherDisplay:10.37,2013-02-12 04:35:00,
2013-02-11 22:40:00,55.8,54.9,30.03,North,0,0.0,2.2,97,0.00,CLR,,0.33,WeatherDisplay:10.37,2013-02-12 04:40:00,
2013-02-11 22:45:00,55.8,54.9,30.03,North,0,0.0,2.2,97,0.00,CLR,,0.33,WeatherDisplay:10.37,2013-02-12 04:45:00,
2013-02-11 22:50:00,55.8,54.9,30.03,North,0,0.0,2.2,97,0.00,CLR,,0.33,WeatherDisplay:10.37,2013-02-12 04:50:00,
2013-02-11 22:55:00,55.8,54.9,30.03,North,0,0.0,2.2,97,0.00,CLR,,0.33,WeatherDisplay:10.37,2013-02-12 04:55:00,
2013-02-11 23:00:00,55.8,54.9,30.03,North,0,0.0,2.2,97,0.00,CLR,,0.33,WeatherDisplay:10.37,2013-02-12 05:00:00,
2013-02-11 23:05:00,55.8,54.9,30.03,North,0,0.0,2.2,97,0.00,CLR,,0.33,WeatherDisplay:10.37,2013-02-12 05:05:00,
2013-02-11 23:10:00,55.8,54.9,30.03,North,0,0.0,2.2,97,0.00,CLR,,0.33,WeatherDisplay:10.37,2013-02-12 05:10:00,
2013-02-11 23:15:00,55.8,54.9,30.03,North,0,0.0,2.2,97,0.00,CLR,,0.33,WeatherDisplay:10.37,2013-02-12 05:15:00,
2013-02-11 23:20:00,55.8,54.9,30.03,North,0,0.0,2.2,97,0.00,CLR,,0.33,WeatherDisplay:10.37,2013-02-12 05:20:00,
2013-02-11 23:25:00,55.8,54.9,30.03,North,0,0.0,2.2,97,0.00,CLR,,0.33,WeatherDisplay:10.37,2013-02-12 05:25:00,
2013-02-11 23:30:00,55.8,54.9,30.03,North,0,0.0,2.2,97,0.00,CLR,,0.33,WeatherDisplay:10.37,2013-02-12 05:30:00,
2013-02-11 23:35:00,55.8,54.9,30.03,North,0,0.0,2.2,97,0.00,CLR,,0.33,WeatherDisplay:10.37,2013-02-12 05:35:00,
2013-02-11 23:40:00,55.8,54.9,30.03,North,0,0.0,2.2,97,0.00,CLR,,0.33,WeatherDisplay:10.37,2013-02-12 05:40:00,
2013-02-11 23:45:00,55.8,54.9,30.03,North,0,0.0,2.2,97,0.00,CLR,,0.33,WeatherDisplay:10.37,2013-02-12 05:45:00,
2013-02-11 23:50:00,55.8,54.9,30.03,North,0,0.0,2.2,97,0.00,CLR,,0.33,WeatherDisplay:10.37,2013-02-12 05:50:00,
2013-02-11 23:55:00,55.8,54.9,30.03,North,0,0.0,2.2,97,0.00,CLR,,0.33,WeatherDisplay:10.37,2013-02-12 05:55:00,